Regional Weather Roundup
Issued by NWS

Home | Current Version | Previous Version | Graphics & Text | Print | Product List | Glossary On
Versions: 1 2 3 4 5 6 7 8 9 10 11 12 13 14 15 16 17 18 19 20 21 22 23 24 25 26 27 28 29 30 31 32 33 34 35 36 37 38 39 40 41 42 43 44 45 46 47 48 49 50
000
ASUS45 KBOU 280107
RWRCO

WEATHER ROUNDUP FOR COLORADO
NATIONAL WEATHER SERVICE DENVER/BOULDER CO
700 PM MDT TUE JUN 27 2017

NOTE: "FAIR" INDICATES FEW OR NO CLOUDS BELOW 12000 FEET WITH NO
SIGNIFICANT WEATHER AND/OR OBSTRUCTIONS TO VISIBILITY.

COZ001>005-013-030-031-280200-
...NORTHWEST COLORADO...

CITY           SKY/WX    TMP DP  RH WIND       PRES   REMARKS
CRAIG          FAIR      81  28  14 NW14G20   29.93S
HAYDEN         FAIR      77  34  20 NW8       29.97S
MEEKER         FAIR      86  23  10 W18G30    29.93F
RABBIT EARS PA FAIR      59  34  38 W9G16     30.28F
STEAMBOAT SPGS FAIR      73  40  30 W3        29.99S
WALDEN         FAIR      72  30  21 W13       30.09S
$$

COZ006>008-011-280200-
...WEST CENTRAL VALLEYS...

CITY           SKY/WX    TMP DP  RH WIND       PRES   REMARKS
GRAND JUNCTION FAIR      94  20   7 W13       29.80F
MONTROSE       FAIR      90  19   7 W12       29.91F
EAGLE          MOSUNNY   84  18   8 MISG      29.96S
RIFLE          FAIR      91   8   4 SW18G25   29.85F
DELTA          FAIR      96  10   4 W12       29.85S
NUCLA          FAIR      90   7   4 W13G20    29.96S
$$

COZ017>023-064>068-280200-
...SOUTHWEST COLORADO...

CITY           SKY/WX    TMP DP  RH WIND       PRES   REMARKS
DURANGO        FAIR      86  13   6 W13       30.01S
CORTEZ         FAIR      89   8   5 W10       29.96F
PAGOSA SPRINGS FAIR      82  14   7 W10G22    30.11S
TELLURIDE      FAIR      75  15  10 W10       30.25S
WOLF CREEK PAS FAIR      57  25  28 SW13G26   30.50R
$$

COZ009-010-012-014-032>034-037-058>063-280200-
...CENTRAL COLORADO...

CITY           SKY/WX    TMP DP  RH WIND       PRES   REMARKS
ASPEN          FAIR      78  21  12 VRB6      30.07F
BUENA VISTA    FAIR      79  18  10 W13G24    30.08R
COPPER MTN     FAIR      61  14  16 W22G36    30.42F
BERTHOUD PASS  PTSUNNY   52  37  58 W24G36    30.43S
COTTONWOOD PAS FAIR      73   3   6 W9G28     30.25R
GUNNISON       FAIR      78  24  13 W15G23    30.08F
KREMMLING      FAIR      84  14   7 NW8G16    30.02S
LEADVILLE      FAIR      68  15  13 W14G22    30.24R
SALIDA         FAIR      83  18   9 NW15G29   30.11R
SUNLIGHT       FAIR      61  16  17 SW13G22   30.33F
WILKERSON PASS FAIR      63  10  13 W13G24    30.37R
$$

COZ069>075-280200-
...SAN LUIS VALLEY/SANGRE DE CRISTO MOUNTAINS...

CITY           SKY/WX    TMP DP  RH WIND       PRES   REMARKS
ALAMOSA        FAIR      80  27  14 W18G28    30.05F
DEL NORTE      FAIR      80  25  13 W22G29    30.09S
LA VETA PASS   FAIR      66  25  20 MISG      30.35S
SAGUACHE       FAIR      81  21  11 NW18      30.08S
$$

COZ035-036-038>040-280200-
...NORTHERN COLORADO FRONT RANGE...

CITY           SKY/WX    TMP DP  RH WIND       PRES   REMARKS
DENVER INTL AP PTSUNNY   92  21   7 NW25G31   29.79R
DMNS CITY PARK   N/A     90  27  10 W22       29.78S
AURORA         PTSUNNY   88  26  10 W18G24    29.81S
FRONT RANGE AP FAIR      90  28  11 N15       29.82R
ERIE MUNI ARPT FAIR      89  24   9 W10G23    29.77S
BOULDER MUN AP FAIR      91  28  10 W8        29.78S
CENTENNIAL     PTSUNNY  N/A N/A N/A N10         N/A
BROOMFIELD     FAIR      88  28  11 W16       29.82R
FORT COLLINS   FAIR      84  40  21 N23G31    29.77S
LONGMONT       FAIR      92  26   9 W13       29.78S
$$

COZ041-046-047-076>085-087-088-280200-
...PIKES PEAK/PALMER DIVIDE AND SOUTHERN FOOTHILLS...

CITY           SKY/WX    TMP DP  RH WIND       PRES   REMARKS
COLO. SPRINGS  FAIR      86  36  16 SW5       29.86S
A. F. ACADEMY  FAIR      88  24  10 W12G21    29.88R
SCHRIEVER AFB  FAIR      82  41  23 S10       29.86S
CHEYENNE MTN   FAIR      79  30  16 CALM      29.89R
ELLICOTT       FAIR     N/A N/A N/A SW16G22   29.84S THUNDER
FALCON           N/A     83  28  13 SW12G20   29.92S
FORT CARSON    FAIR      90  32  12 W12       29.82F
LIMON          FAIR      78  46  32 SE18G29   29.82S
MONUMENT HILL  FAIR      77  34  20 E7        29.96R
CANON CITY     SUNNY     93  34  12 MISG      29.79R
WALSENBURG     FAIR      90  30  12 SW10G23   29.88R
TRINIDAD       FAIR      88  40  18 VRB5      29.87F
$$

COZ042>045-048>051-090-091-280200-
...NORTHEAST COLORADO...

CITY           SKY/WX    TMP DP  RH WIND       PRES   REMARKS
GREELEY ARPT   FAIR      82  40  22 N28G37    29.76R
AKRON          FAIR      86  38  18 SE9       29.77S
BURLINGTON     PTSUNNY   83  50  31 E6        29.76R
WRAY           FAIR      84  41  21 SW3       29.68R
YUMA           FAIR      79  50  36 NW8       29.73R
STERLING       FAIR      82  54  36 S9        29.68S
HOLYOKE        NOT AVBL
FORT MORGAN    FAIR      83  42  23 SE10      29.74F
$$

COZ086-089-092>099-280200-
...SOUTHEAST COLORADO...

CITY           SKY/WX    TMP DP  RH WIND       PRES   REMARKS
PUEBLO         FAIR      95  35  12 W18G24    29.73S
LA JUNTA       FAIR      95  42  16 MISG      29.71F
LAMAR          FAIR      92  44  19 S21G30    29.68F
SPRINGFIELD      N/A     83  49  30 SW23G39   29.81S
$$



USA.gov is the U.S. government's official web portal to all federal, state and local government web resources and services.